User: anonymous   Login
Location: Unspecified
(0.0000°N, 0.0000°E)
Time: 02:25:38
(UTC+00:00)
Language:

Tiros 1 - Orbit

View from above orbital plane
View from above orbital plane
View from above satellite
View from above satellite

Ground track
Ground track

The orbit data is extracted from the following two-line orbital elements,

1    29U 60002B   18267.88439000 -.00000129 +00000-0 +11882-4 0  9992
2    29 048.3803 048.9800 0023672 050.1585 310.1405 14.74264945125358
Epoch (UTC): 24 September 2018 21:13:31
Eccentricity: 0.0023672
inclination: 48.3803°
perigee height: 631 km
apogee height: 664 km
right ascension of ascending node: 48.9800°
argument of perigee: 50.1585°
revolutions per day: 14.74264945
mean anomaly at epoch: 310.1405°
orbit number at epoch: 12535

The dashed part of the orbit path shows where the satellite is in the earth's shadow,  

DLR